[[{"header":{"parameterUnit":"m.s-1","parameterCategory":1,"la1":30.2991,"la2":30.254,"lo1":-89.0895,"lo2":-89.0444,"dy":0.0017,"dx":0.0017,"nx":28,"ny":28,"refTime":"2023-11-02T09:00:00:Z","depth":0,"parameterNumber":2,"parameterNumberName":"U-component_of_WINDS"},"data":[0,0,0,0,0,0,0,0,0,0,0,0,0,0,0,0,0,0,0,0,0,0,0,0,0,0,0,0,0,0,0,0,0,0,0,0,0,0,0,0,0,0,0,0,0,0,0,0,0,0,0,0,0,0,0,0,0,0,-3.6816,-3.6817,0,-3.6871,-3.6872,-3.6872,-3.6723,-3.6718,-3.6714,-3.6709,-3.6768,-3.6774,-3.678,0,0,0,0,0,0,0,0,0,0,0,0,0,-3.6583,-3.6588,-3.6816,-3.6817,-3.6817,-3.6871,-3.6872,-3.6872,-3.6724,-3.6718,-3.6712,-3.6707,-3.6766,-3.6773,-3.678,0,0,0,0,0,0,0,0,0,0,0,0,0,-3.6666,-3.659,-3.6816,-3.6749,-3.6744,-3.6871,-3.6872,-3.6873,-3.6725,-3.6718,-3.6711,-3.6704,-3.6764,-3.6773,-3.6781,-3.6976,0,0,-3.6808,-3.6812,0,0,0,0,0,0,0,0,-3.6662,-3.6675,-3.6758,-3.6754,-3.6748,-3.6783,-3.6811,-3.6907,-3.6727,-3.6732,-3.6709,-3.6701,-3.6779,-3.6786,-3.6812,-3.6978,-3.6981,-3.6809,-3.6814,-3.6818,-3.6821,0,0,0,0,0,0,0,-3.6656,-3.6672,-3.6838,-3.676,-3.6754,-3.6717,-3.6721,-3.6829,-3.6794,-3.6731,-3.672,-3.6729,-3.6775,-3.6804,-3.6812,-3.6982,-3.6809,-3.6817,-3.6822,-3.6826,-3.731,-3.7317,0,0,0,0,0,0,-3.6659,-3.6668,-3.6836,-3.6839,-3.6687,-3.6727,-3.6732,-3.6779,-3.6792,-3.6788,-3.6735,-3.6722,-3.6792,-3.6802,-3.6814,-3.7042,-3.6818,-3.6827,-3.6832,-3.7303,-3.7312,-3.732,0,0,0,0,0,0,-3.6654,-3.6675,-3.6834,-3.6751,-3.6768,-3.6739,-3.6793,-3.6784,-3.6812,-3.6795,-3.6788,-3.6771,-3.6787,-3.6801,-3.6936,-3.7042,-3.683,-3.6839,-3.7294,-3.7305,-3.7316,-3.75,0,0,0,0,0,0,-3.6648,-3.6674,-3.6748,-3.6753,-3.6773,-3.6956,-3.6799,-3.679,-3.6828,-3.6811,-3.6827,-3.6823,-3.6782,-3.6924,-3.6945,-3.705,-3.6845,-3.7284,-3.7299,-3.7312,-3.7485,-3.7517,-3.7544,0,0,0,0,0,-3.664,-3.6798,-3.6752,-3.6773,-3.6864,-3.6962,-3.6973,-3.6923,-3.6837,-3.691,-3.6899,-3.6822,-3.7027,-3.6939,-3.6961,-3.7071,-3.7277,-3.7295,-3.7311,-3.7471,-3.751,-3.7543,0,0,0,0,0,0,-3.6806,-3.6798,-3.6747,-3.6911,-3.6938,-3.6936,-3.7028,-3.6965,-3.7018,-3.7001,-3.6936,-3.6941,-3.7089,-3.7093,-3.6995,-3.7259,-3.7137,-3.716,-3.7251,-3.7288,-3.7317,-3.7314,-3.6853,0,0,0,0,0,-3.6862,-3.6942,-3.693,-3.7076,-3.7092,-3.7058,-3.7099,-3.7057,-3.7083,-3.7094,-3.7093,-3.7122,-3.7192,-3.724,-3.7304,-3.7484,-3.7486,-3.7571,-3.76,-3.7625,-3.7645,-3.7741,-3.7778,-3.7376,-3.7376,-3.7375,0,0,-3.6978,-3.6983,-3.7037,-3.7109,-3.7125,-3.721,-3.7069,-3.7164,-3.7226,-3.7109,-3.7236,-3.7237,-3.7264,-3.7423,-3.7493,-3.7431,-3.7756,-3.7646,-3.7666,-3.7673,-3.7762,-3.78,-3.7834,-3.7387,-3.7385,-3.7383,0,0,-3.7232,-3.7244,-3.7366,-3.7385,-3.7411,-3.7388,-3.7418,-3.7425,-3.7421,-3.7547,-3.7461,-3.7534,-3.7657,-3.768,-3.7709,-3.7971,-3.7903,-3.7994,-3.8149,-3.8243,-3.8275,-3.8303,-3.8397,-3.8431,-3.8014,-3.8015,-3.8015,0,-3.7373,-3.7496,-3.7438,-3.7539,-3.7573,-3.747,-3.7594,-3.7615,-3.7662,-3.7688,-3.7618,-3.777,-3.7782,-3.7944,-3.8008,-3.8034,-3.8066,-3.7992,-3.8275,-3.8302,-3.8327,-3.8416,-3.8452,-3.8026,-3.8024,-3.8023,-3.8022,0,-3.7668,-3.7755,-3.7851,-3.7897,-3.7942,-3.8055,-3.8014,-3.8066,-3.8021,-3.8005,-3.8135,-3.8145,-3.821,-3.8245,-3.8202,-3.8402,-3.8363,-3.8285,-3.8161,-3.8378,-3.846,-3.8494,-3.8041,-3.8037,-3.8034,-3.8031,0,0,-3.8029,-3.8041,-3.8078,-3.8097,-3.8118,-3.8185,-3.8292,-3.8354,-3.8401,-3.8436,-3.8525,-3.8631,-3.8559,-3.8591,-3.855,-3.8632,-3.884,-3.8544,-3.8544,-3.8599,-3.9062,-3.912,-3.9161,-3.8795,-3.8801,-3.8806,-3.9059,0,-3.828,-3.8464,-3.8414,-3.8598,-3.8678,-3.8581,-3.8674,-3.8698,-3.8686,-3.8752,-3.8738,-3.8815,-3.8713,-3.8732,-3.8809,-3.8799,-3.8932,-3.878,-3.8878,-3.8882,-3.8874,-3.9204,-3.9266,-3.9505,-3.9091,-3.9097,-3.91,0,-3.8597,-3.8644,-3.8836,-3.8844,-3.8875,-3.896,-3.9013,-3.9077,-3.9102,-3.9087,-3.9123,-3.9065,-3.9171,-3.9047,-3.9193,-3.909,-3.9127,-3.9128,-3.9136,-3.9144,-3.9005,-3.9221,-3.958,-3.9616,-3.9151,-3.9147,-3.9143,0,-3.8842,-3.8953,-3.9082,-3.9102,-3.9114,-3.9176,-3.9184,-3.9202,-3.9242,-3.9288,-3.9314,-3.9372,-3.9405,-3.9452,-3.9411,-3.9324,-3.9565,-3.9436,-3.9556,-3.9557,-3.9611,-3.9609,-3.9982,-3.9635,-3.9635,-3.9634,-3.9633,0,-3.9128,-3.9249,-3.9192,-3.9272,-3.9404,-3.9346,-3.948,-3.9477,-3.9493,-3.9571,-3.949,-3.9565,-3.9507,-3.9577,-3.9546,-3.9672,-3.9687,-3.9679,-3.9669,-3.9686,-3.9688,-3.971,-3.9693,-3.9643,-3.9641,-3.9639,-3.9638,0,-3.9424,-3.939,-3.9524,-3.9525,-3.9527,-3.9626,-3.9626,-3.97,-3.9681,-3.978,-3.98,-3.9772,-3.985,-3.9814,-3.9896,-3.9875,-4.0038,-4.0006,-4.0029,-4.0021,-4.0143,-4.0133,-4.0545,-4.0596,-4.0216,-4.022,-4.0223,0,-3.9609,-3.9699,-3.9709,-3.9755,-3.9768,-3.9843,-3.9883,-3.983,-3.9875,-3.991,-3.998,-4.0051,-4.0105,-4.0234,-4.0221,-4.0284,-4.0253,-4.0393,-4.0262,-4.0276,-4.0255,-4.0251,-4.026,-4.042,-4.0424,-4.0428,-4.043,0,-3.994,-3.9919,-3.998,-4.0036,-4.0086,-4.0127,-4.0162,-4.0204,-4.0152,-4.0207,-4.0285,-4.0327,-4.041,-4.0482,-4.0537,-4.0545,-4.0481,-4.0472,-4.0503,-4.0522,-4.0532,-4.0528,-4.0102,-4.0463,-4.046,-4.0457,-4.0455,-4.0454,-4.0186,-4.0262,-4.0281,-4.0351,-4.0372,-4.0406,-4.0475,-4.0465,-4.0529,-4.0592,-4.0556,-4.0648,-4.067,-4.0737,-4.0754,-4.0826,-4.077,-4.0816,-4.0827,-4.0839,-4.0856,-4.052,-4.0835,-4.0834,-4.0834,-4.0833,-4.0832,0,-4.0513,-4.052,-4.0586,-4.0636,-4.0692,-4.0625,-4.066,-4.0711,-4.0792,-4.0818,-4.0873,-4.0963,-4.1032,-4.1024,-4.1088,-4.1146,-4.1118,-4.1165,-4.116,-4.1163,-4.0901,-4.0868,-4.1187,-4.1187,-4.1187,-4.1187,-4.1186,-4.1186,-4.069,-4.0816,-4.0797,-4.0931,-4.0937,-4.1026,-4.1052,-4.1083,-4.1103,-4.1207,-4.1264,-4.1258,-4.1271,-4.1334,-4.1395,-4.1391,-4.1418,-4.1476,-4.1462,-4.1217,-4.1182,-4.1148,-4.1117,-4.1483,-4.1483,-4.1718,-4.172,-4.1722]},{"header":{"parameterUnit":"m.s-1","parameterCategory":1,"la1":30.2991,"la2":30.254,"lo1":-89.0895,"lo2":-89.0444,"dy":0.0017,"dx":0.0017,"nx":28,"ny":28,"refTime":"2023-11-02T09:00:00:Z","depth":0,"parameterNumber":3,"parameterNumberName":"V-component_of_WINDS"},"data":[0,0,0,0,0,0,0,0,0,0,0,0,0,0,0,0,0,0,0,0,0,0,0,0,0,0,0,0,0,0,0,0,0,0,0,0,0,0,0,0,0,0,0,0,0,0,0,0,0,0,0,0,0,0,0,0,0,0,-2.3779,-2.3779,0,-2.3769,-2.3769,-2.3769,-2.3757,-2.3757,-2.3757,-2.3757,-2.3745,-2.3745,-2.3744,0,0,0,0,0,0,0,0,0,0,0,0,0,-2.3786,-2.3786,-2.3779,-2.3779,-2.3779,-2.3769,-2.3769,-2.3769,-2.3757,-2.3757,-2.3757,-2.3757,-2.3745,-2.3745,-2.3744,0,0,0,0,0,0,0,0,0,0,0,0,0,-2.378,-2.3786,-2.3779,-2.3772,-2.3772,-2.3769,-2.3769,-2.3769,-2.3757,-2.3757,-2.3757,-2.3757,-2.3745,-2.3745,-2.3744,-2.3748,0,0,-2.3744,-2.3743,0,0,0,0,0,0,0,0,-2.378,-2.378,-2.3773,-2.3773,-2.3772,-2.3764,-2.3767,-2.3762,-2.3758,-2.3763,-2.3757,-2.3757,-2.3751,-2.3751,-2.3749,-2.3747,-2.3746,-2.3744,-2.3743,-2.3743,-2.3743,0,0,0,0,0,0,0,-2.3781,-2.378,-2.3775,-2.3773,-2.3772,-2.3768,-2.3767,-2.3766,-2.3758,-2.3762,-2.3761,-2.376,-2.3751,-2.3749,-2.3749,-2.3746,-2.3744,-2.3743,-2.3743,-2.3743,-2.3743,-2.3743,0,0,0,0,0,0,-2.3783,-2.3781,-2.3776,-2.3775,-2.3776,-2.3769,-2.3767,-2.3767,-2.3758,-2.3757,-2.3761,-2.376,-2.375,-2.3749,-2.3748,-2.375,-2.3743,-2.3743,-2.3743,-2.3743,-2.3743,-2.3743,0,0,0,0,0,0,-2.3783,-2.3782,-2.3776,-2.3778,-2.3776,-2.3769,-2.3768,-2.3767,-2.3765,-2.3757,-2.3756,-2.3761,-2.375,-2.3749,-2.3747,-2.3749,-2.3743,-2.3743,-2.3743,-2.3743,-2.3743,-2.3754,0,0,0,0,0,0,-2.3783,-2.3783,-2.3785,-2.3778,-2.3776,-2.3776,-2.3769,-2.3767,-2.3765,-2.3764,-2.3757,-2.3755,-2.3749,-2.3748,-2.3747,-2.3749,-2.3742,-2.3743,-2.3743,-2.3743,-2.3753,-2.3754,-2.3755,0,0,0,0,0,-2.3783,-2.3788,-2.3785,-2.3784,-2.3779,-2.3777,-2.3776,-2.3769,-2.3765,-2.3767,-2.3761,-2.3756,-2.3749,-2.3748,-2.3747,-2.3748,-2.3743,-2.3743,-2.3743,-2.3753,-2.3754,-2.3755,0,0,0,0,0,0,-2.3796,-2.3787,-2.3784,-2.3786,-2.3782,-2.3775,-2.3776,-2.3771,-2.3768,-2.3767,-2.3758,-2.3757,-2.3756,-2.3752,-2.3751,-2.375,-2.3745,-2.3745,-2.3752,-2.3753,-2.3755,-2.3755,-2.3742,0,0,0,0,0,-2.3799,-2.3798,-2.3791,-2.3794,-2.3792,-2.3784,-2.3783,-2.3778,-2.3773,-2.3771,-2.3766,-2.3761,-2.3757,-2.3755,-2.3752,-2.3752,-2.375,-2.3753,-2.3754,-2.3755,-2.3755,-2.3753,-2.3753,-2.3745,-2.3745,-2.3745,0,0,-2.3805,-2.38,-2.3801,-2.3796,-2.3792,-2.379,-2.3783,-2.3782,-2.378,-2.3771,-2.3769,-2.3765,-2.3758,-2.3757,-2.3757,-2.3754,-2.3756,-2.3755,-2.3756,-2.3756,-2.3753,-2.3754,-2.3755,-2.3745,-2.3745,-2.3745,0,0,-2.3815,-2.3813,-2.3814,-2.381,-2.3804,-2.3799,-2.3799,-2.3792,-2.3788,-2.3786,-2.3778,-2.3776,-2.377,-2.3765,-2.3762,-2.3768,-2.3762,-2.3767,-2.3772,-2.377,-2.3771,-2.3772,-2.3772,-2.3773,-2.3767,-2.3767,-2.3767,0,-2.3824,-2.3822,-2.3815,-2.3814,-2.3811,-2.3803,-2.3803,-2.3799,-2.3792,-2.379,-2.3787,-2.3779,-2.3774,-2.3771,-2.3772,-2.377,-2.3769,-2.3768,-2.3772,-2.3772,-2.3772,-2.3773,-2.3773,-2.3768,-2.3768,-2.3768,-2.3768,0,-2.3832,-2.383,-2.3832,-2.3825,-2.3822,-2.3822,-2.3814,-2.3812,-2.3806,-2.3801,-2.3797,-2.3791,-2.3785,-2.3784,-2.3779,-2.3779,-2.3778,-2.3773,-2.3768,-2.3774,-2.3774,-2.3774,-2.3769,-2.3768,-2.3768,-2.3768,0,0,-2.3851,-2.3839,-2.3839,-2.3835,-2.3827,-2.3825,-2.3823,-2.3818,-2.3815,-2.381,-2.3807,-2.3802,-2.3797,-2.3794,-2.3788,-2.3786,-2.3789,-2.3782,-2.3781,-2.3782,-2.3787,-2.379,-2.379,-2.3785,-2.3785,-2.3785,-2.3787,0,-2.3859,-2.3856,-2.3848,-2.3847,-2.3844,-2.3835,-2.3833,-2.3827,-2.3821,-2.3817,-2.381,-2.3806,-2.3801,-2.3798,-2.3796,-2.3789,-2.379,-2.3789,-2.3781,-2.3781,-2.3783,-2.379,-2.3794,-2.3796,-2.3787,-2.3787,-2.3787,0,-2.3868,-2.3863,-2.3862,-2.3852,-2.385,-2.3849,-2.3842,-2.3839,-2.3831,-2.3826,-2.3821,-2.3814,-2.381,-2.3806,-2.3799,-2.3799,-2.3795,-2.379,-2.379,-2.3789,-2.3784,-2.3788,-2.3797,-2.3797,-2.3787,-2.3787,-2.3787,0,-2.388,-2.3873,-2.3871,-2.3868,-2.3857,-2.3855,-2.3851,-2.3843,-2.3839,-2.3832,-2.3829,-2.3822,-2.3818,-2.3812,-2.3803,-2.3801,-2.3797,-2.3792,-2.3792,-2.3792,-2.3792,-2.3792,-2.3799,-2.379,-2.379,-2.379,-2.379,0,-2.389,-2.3889,-2.3876,-2.3875,-2.3872,-2.3863,-2.3861,-2.3855,-2.3848,-2.3844,-2.3835,-2.3831,-2.382,-2.3814,-2.3807,-2.3801,-2.38,-2.3795,-2.3793,-2.3796,-2.3796,-2.3793,-2.3792,-2.379,-2.379,-2.379,-2.379,0,-2.3903,-2.3895,-2.3891,-2.388,-2.3877,-2.3876,-2.3866,-2.3864,-2.3857,-2.3852,-2.385,-2.3839,-2.3832,-2.3822,-2.3812,-2.3807,-2.3802,-2.3799,-2.3805,-2.3803,-2.3803,-2.3803,-2.3808,-2.3808,-2.38,-2.38,-2.38,0,-2.3909,-2.3908,-2.3897,-2.3894,-2.3889,-2.3884,-2.388,-2.387,-2.3866,-2.3856,-2.3854,-2.3846,-2.3839,-2.3828,-2.3818,-2.381,-2.3806,-2.3809,-2.3805,-2.3807,-2.3805,-2.3805,-2.3804,-2.3809,-2.381,-2.381,-2.381,0,-2.3921,-2.3916,-2.3911,-2.3903,-2.3899,-2.3892,-2.3886,-2.3883,-2.3871,-2.3867,-2.386,-2.3854,-2.3843,-2.3835,-2.3825,-2.3819,-2.3812,-2.3811,-2.381,-2.3813,-2.3815,-2.3813,-2.3806,-2.3811,-2.3811,-2.3811,-2.3811,-2.3811,-2.393,-2.3927,-2.3919,-2.3912,-2.3906,-2.3899,-2.3896,-2.3888,-2.3882,-2.3873,-2.3867,-2.3859,-2.3849,-2.3835,-2.3829,-2.3822,-2.3819,-2.3819,-2.3819,-2.3818,-2.3819,-2.3817,-2.382,-2.382,-2.382,-2.382,-2.382,0,-2.3939,-2.3933,-2.3927,-2.3918,-2.3912,-2.3906,-2.3898,-2.3894,-2.3887,-2.3879,-2.3872,-2.3862,-2.3854,-2.3843,-2.3834,-2.383,-2.3826,-2.3828,-2.3828,-2.3826,-2.3822,-2.3823,-2.3831,-2.3831,-2.3831,-2.3831,-2.3831,-2.3831,-2.3944,-2.3939,-2.3933,-2.3925,-2.3918,-2.3911,-2.3906,-2.39,-2.3893,-2.3883,-2.3876,-2.3869,-2.3859,-2.3848,-2.3839,-2.3836,-2.3833,-2.3835,-2.3831,-2.3827,-2.3826,-2.3826,-2.3826,-2.3834,-2.3834,-2.3835,-2.3835,-2.3835]}]]